Starlink 31767

operational
NORAD ID: 59605 Int'l Des: 2024-080 Owner: SPXS Country: US Constellation: starlink
LEOCIRCULAR

关于 Starlink 31767

正在加载描述...

实时位置

正在加载3D地球...

即将过境

高度历史

Altitude vs Time

uPlot chart will show altitude changes over time

两行轨道根数

1 59605U 24080E 25304.70254837 .00011519 00000-0 42723-3 0 9997
2 59605 42.9984 46.5437 0001320 291.9496 68.1215 15.27597058 84800
Epoch: Oct 31, 2025 • Age: 18 hours

当前状态

高度 484.7 km
速度 7.63 km/s
星下点 34.06°N, 107.82°W
发射日期 Apr 28, 2024
运行时间 1.5 years
类型 internet

技术详情

分类 Payload
质量 730.00 kg
干质量 700.00 kg
总质量 730.00 kg
长度 0.30 m
直径 4.10 m
跨度 29.00 m
形状 Box + pan
制造商 SPXS
平台类型 Starlink V2M
阶段状态 In Orbit
所有者/国家 SPXS/US

大型星座

Loading constellations...